Skip Page Navigation
NASA JPL Caltech
NASA Logo - Jet Propulsion Laboratory + View the NASA Portal
+ Center for Near-Earth Object Studies
JPL Home Earth Solar System Stars & Galaxies Technology
JPL Solar System Dynamics
BODIES ORBITS EPHEMERIDES TOOLS PHYSICAL DATA DISCOVERY FAQ SITE MAP
JPL Small-Body Database Browser
Search: [ help ]  
193039 (2000 ES133)
Classification: Main-belt Asteroid          SPK-ID: 2193039
Ephemeris | Orbit Diagram | Orbital Elements | Mission Design | Physical Parameters | Discovery Circumstances | Close-Approach Data ]

[ show orbit diagram ]
Orbital Elements at Epoch 2459200.5 (2020-Dec-17.0) TDB
Reference: JPL 22 (heliocentric ecliptic J2000)
 Element Value Uncertainty (1-sigma)   Units 
e .05527198435191107 7.3649e-08  
a 3.058758996730391 2.7989e-08 au
q 2.889695317326842 2.3406e-07 au
i 11.01799589273586 5.9387e-06 deg
node 56.97347340266851 3.74e-05 deg
peri 171.9675619428462 7.7585e-05 deg
M 277.5639374751211 7.0574e-05 deg
tp 2459647.936135867428
(2022-Mar-09.43613587)
0.00038481 TDB
period 1953.962913544806
5.35
2.6819e-05
7.343e-08
d
yr
n .184240958466761 2.5288e-09 deg/d
Q 3.227822676133941 2.9536e-08 au
  Orbit Determination Parameters
   # obs. used (total)      506  
   data-arc span      9489 days (25.98 yr)  
   first obs. used      1995-04-26  
   last obs. used      2021-04-18  
   planetary ephem.      DE441  
   SB-pert. ephem.      SB441-N16  
   condition code      0  
   norm. resid. RMS      .58103  
   source      ORB  
   producer      Otto Matic  
   solution date      2021-May-04 10:20:13  

Additional Information
 Earth MOID = 1.87807 au 
 Jupiter MOID = 1.75926 au 
 T_jup = 3.204 
[ show covariance matrix ]

Ephemeris | Orbit Diagram | Orbital Elements | Mission Design | Physical Parameters | Discovery Circumstances | Close-Approach Data ]

Physical Parameter Table
Parameter Symbol Value Units Sigma Reference Notes
absolute magnitude H 15.16   n/a MPCxxxxx  

193039 (2000 ES133)          Discovered 2000-Mar-11 by LONEOS at Anderson Mesa
Reference: 20081113/Numbers.arcLast Updated: 2008-11-17

[ hide close-approach data ]
Close-Approach Data   ...sorted by Date/Time (TDB)
Date/Time (TDB) Time Uncertainty
(days_HH:MM)
Body Nominal Distance (au) Minimum Distance (au) Maximum Distance (au) V-relative (km/s) V-infinity (km/s) JD (TDB) Time Uncertainty (minutes) Semi-major axis (km) Semi-minor axis (km) range-LOV angle (deg) N-sigma BP Orbit Ref. Reference Modified
1918-May-05 09:33 00:04 Jupiter 1.94078828929563 1.94078635390508 1.94079022469919 3.78427581499139 3.66713499006748 2421718.897995291 4.05188271899355 278.78457102829 18.5488144121586 -70.3565017996859 2936756.19381756 T 22 CATAB v2.0g-lin.ifort 2021-May-04 10:20:15 2021-May-04 10:20
1927-Dec-16 01:05 00:04 Jupiter 1.86048681172375 1.86048524186973 1.86048838161023 3.29132835728056 3.14996885286814 2425230.545156798 3.80253134039774 456.149163436966 27.8997723722747 -80.8377459779696 1591529.3395097 T 22 CATAB v2.0g-lin.ifort 2021-May-04 10:20:15 2021-May-04 10:20
1976-Oct-02 08:38 00:02 Jupiter 1.78184238014701 1.78184171784532 1.78184304245032 3.68560313897571 3.55428528065022 2443053.859421431 1.63034615877415 138.076657350905 19.3952934569195 -80.8821274579528 2128196.64418184 T 22 CATAB v2.0g-lin.ifort 2021-May-04 10:20:15 2021-May-04 10:20
2035-Feb-28 03:55 < 00:01 Jupiter 1.79810658477479 1.79810579022874 1.79810737932359 3.48672814554884 3.34890221064166 2464386.663223051 0.854169314393719 205.161076434787 25.0812807630054 -83.0964298030575 1680165.65935899 T 22 CATAB v2.0g-lin.ifort 2021-May-04 10:20:15 2021-May-04 10:20
2083-Dec-07 14:39 00:03 Jupiter 1.8338329177805 1.83383180097227 1.83383403459592 3.70004393018099 3.57303124200308 2482201.110367451 2.76962979287467 210.838008070692 18.0557188211616 -76.3750447621988 2389232.3489938 T 22 CATAB v2.0g-lin.ifort 2021-May-04 10:20:15 2021-May-04 10:20
2093-Jul-12 13:23 00:03 Jupiter 1.96351843888355 1.96351698738961 1.96351989038654 3.35807866462705 3.22706250206221 2485706.057654196 3.43355869995519 263.215432466021 31.3128475052846 -76.2454412869073 1802276.52117328 T 22 CATAB v2.0g-lin.ifort 2021-May-04 10:20:15 2021-May-04 10:20
2142-May-09 05:20 00:05 Jupiter 1.76429357059998 1.76429279854562 1.76429434265704 3.62026824806458 3.4851340005233 2503537.722427372 5.17943128902153 179.005443417903 24.4874372562578 -81.6491097062324 1764471.22526796 T 22 CATAB v2.0g-lin.ifort 2021-May-04 10:20:15 2021-May-04 10:20
2191-Feb-16 00:33 00:07 Jupiter 1.91481877545817 1.91481554042386 1.91482201053319 3.63272372345313 3.50884298839669 2521352.522733367 7.23998609597358 480.570513540929 18.2422403908395 -70.4635545013141 2665433.04727173 T 22 CATAB v2.0g-lin.ifort 2021-May-04 10:20:15 2021-May-04 10:20
2200-Oct-01 15:23 00:08 Jupiter 1.87367610440471 1.87367326696746 1.8736789419702 3.46359935893125 3.33052420128198 2524867.140940901 7.93912895198458 827.016160674657 29.0558726851163 -79.9788572960515 1725191.65027149 T 22 CATAB v2.0g-lin.ifort 2021-May-04 10:20:15 2021-May-04 10:20

Alternate Designations
 2000 ES133 = 1995 HV3 
Ephemeris | Orbit Diagram | Orbital Elements | Mission Design | Physical Parameters | Discovery Circumstances | Close-Approach Data ]
ABOUT SSD CREDITS/AWARDS PRIVACY/COPYRIGHT GLOSSARY LINKS
FirstGov 2021-May-08 22:52 UT
(server date/time)  
NASA Home Page
Site Manager:   Ryan S. Park
Webmaster  Alan B. Chamberlin